Simultaneous Nadir Overpasses (SNOs) Predictions

Prediction of SNOs between GOES-16 and FY3D Satellite Orbit:

Table of predicted SNOs for the next 14.0 days since TLE Epoch: 3/7/2025
Index Date Time (GOES-16) GOES-16 Lat,Lon FY3D Lat,Lon Distance(km) Time Diff (sec)
1 03/08/2025 07:40:07 -0.06, -75.25 -0.87, -71.70 405.50 80
2 03/09/2025 20:01:59 0.05, -75.25 -0.34, -76.94 192.79 80
3 03/10/2025 19:45:53 0.04, -75.26 0.70, -72.38 328.55 80
4 03/12/2025 08:07:38 -0.03, -75.31 0.46, -77.60 260.46 80
5 03/13/2025 07:46:12 -0.03, -75.33 -0.58, -73.05 261.22 80
6 03/14/2025 20:08:03 0.03, -75.34 -0.67, -78.28 335.70 80
7 03/15/2025 19:51:56 0.03, -75.37 0.38, -73.72 186.62 80
8 03/17/2025 08:13:42 -0.03, -75.43 0.77, -78.95 400.87 80
9 03/18/2025 07:52:15 -0.03, -75.45 -0.28, -74.39 121.38 80
10 03/19/2025 20:14:07 0.03, -75.47 -0.94, -79.63 475.11 80
11 03/20/2025 19:58:00 0.03, -75.49 0.11, -75.07 47.59 80
